Погода Звериноголовская

Погода Звериноголовская : погода сейчас, прогноз погоды и архив. Всё, что Вы хотите узнать о погоде Звериноголовская!

Поиск расширенной информации на нашем сайте:

Другие новости

Новости СМИ2

Главная страница сайта

Новости сайта

02.10.2013

Напоминаем, что на нашем новом сайте вы можете получить высокодетализированные прогнозы погоды по пунктам России, СНГ и мира (включающие важные для авиации метеовеличины, такие как направление и скорость ветра, видимость, явления погоды, количество и форма облачности, нижняя и верхняя граница облачности), а также ознакомиться с разнообразными материалами по авиационной метеорологии и подборкой полезных ссылок на эту тему.

Сайт Метеоцентр.Азия посвящён разработке технологий оптимизации авиаметеорологического обслуживания, включая проектирование и перспективное создание нескольких автоматизированных авиаметеорологических систем:
- система выпуска высокодетальных прогностических карт явлений погоды для нижнего воздушного пространства по России и ближнему зарубежью;
- система верификации прогнозов TAF (выпускаемых синоптиками официальных АМСГ РФ и ближнего зарубежья) и AUTOTAF (выпускаемых сайтом Метеоцентр.Азия) - выявление ошибок, онлайн-сопоставление с фактической погодой METAR, автоматическое внесение коррективов в прогнозы при резком отклонении фактической погоды от прогноза, подсчёт оправдываемости прогнозов по элементам и в целом;
- система обработки, анализа и отображения авиаметеорологической информации для применения провайдерами метеорологической информации.

Рекомендуем: Подробности любимый форум тут.

Погода Звериноголовская - сегодня

Время (UTC), дата Ветер
(°,м/с) 
Видим.   Явления Облачность Т
(°С)
Тd
(°С)
f(%) Тe
(°С)
Pmin
(гПа)
dP
(гПа)
Po
(мм)
O2
(г/м3)
Тmin Tmax R s Состояние
почвы
21 20.02.17 230 (ЮЗ) 10 км    8/0 средняя 
[Ac As]
-2.1 -4.6 83 -5  1004.6  -0.3  742  302           
00 21.02.17 230 (ЮЗ) 5{11}  10 км    9/0 средняя 
[Ac As]
-1.5 -4.2 82 -5  1004.1  -0.4  742  301           
03 21.02.17 230 (ЮЗ) 4{11}  20000 м  позёмок  9/0 средняя 
[Ac As]
-2.6 -5.1 83 -5  1005  0.8  743  303  -2.8    0.0  57  равномерный
сухой снег
100% 
06 21.02.17 230 (ЮЗ) 5{12}  20000 м    9/3 600 м средняя 
[Sc|Ac As]
-0.6 -4.1 77 -4  1005.7  0.8  743  301           
09 21.02.17 230 (ЮЗ) 5-10{12}  20000 м    9/0 средняя 
[Ac As]
-0.2 -3.7 77 -3  1005.5  0.1  743  300           
12 21.02.17 220 (ЮЗ) 4{12}  20000 м    10/0 средняя, верхняя 
[Ac As|Cs]
-0 -3.1 80 -2  1006.3  0.8  744  300           
15 21.02.17 220 (ЮЗ) 4{11}  10 км    5/0 средняя 
[Ac As]
-1.8 -4.4 82 -5  1007.6  1.1  745  303    +0.6       
18 21.02.17 210 (ЮЗ) 5{10}  10 км    5/0 средняя 
[Ac As]
-3.4 -5.5 85 -7  1008.9  1.2  746  305           
21 21.02.17 220 (ЮЗ) 5{11}  10 км    3/0 средняя 
[Ac As]
-3.4 -6.1 82 -7  1010.4  1.5  747  305           
00 22.02.17 210 (ЮЗ) 6-11{11}  10 км    10/4 600 м средняя 
[Sc|Ac As]
-1.7 -4.3 82 -5  1011.7  1.4  748  304           
03 22.02.17 200 (Ю) 6{11}  20000 м    10/0 средняя 
[Ac As]
-1.8 -4.2 84 -6  1013.3  1.5  749  304  -3.8      56  равномерный
сухой снег
100% 
06 22.02.17 200 (Ю) 7-12{12}  20000 м  позёмок  8/0 средняя, верхняя 
[Ac As|Cs]
-0.5 -3.7 79 -4  1014.6  1.3  750  303           
09 22.02.17 200 (Ю) 6-10{12}  20000 м  позёмок  8/0 средняя, верхняя 
[Ac As|Cs]
-0.2 -3.5 78 -4  1015.5  1.3  751  303           
12 22.02.17 200 (Ю) 6{12}  20000 м    9/0 верхняя 
[Cs]
-0.4 -4.3 75 -4  1016.1  0.6  751  304           
15 22.02.17 200 (Ю) 6-10{12}  10 км    3/0 верхняя 
[Cs]
-2.6 -5.7 79 -7  1017.6  1.3  752  307    +0.3       
18 22.02.17 190 (Ю) 5{11}  10 км    5/0 верхняя 
[Cs]
-6.9 -9.7 80 -11  1019  1.1  753  312           
21 22.02.17 190 (Ю) 6{10}  10 км    ясно 
-8 -10.1 85 -13  1019.2  0.2  753  314           
00 23.02.17 180 (Ю) 6-10{12}  10 км    ясно 
-8.2 -10.4 84 -13  1019.2  753  314           
03 23.02.17 190 (Ю) 4{11}  20000 м    4/0 верхняя 
[Cs]
-9.3 -12.5 77 -13  1019.7  0.4  753  315  -9.5      56  равномерный
сухой снег
100% 
06 23.02.17 190 (Ю) 5{11}  20000 м    5/0 верхняя 
[Cs]
-9 -13.4 70 -14  1019.9  0.2  753  315  -9.7         
09 23.02.17 190 (Ю) 5{10}  20000 м    5/0 верхняя 
[Cs]
-6.1 -10.4 72 -10  1019.4  -0.3  753  311           
12 23.02.17 180 (Ю) 5{11}  20000 м    5/0 верхняя 
[Cs]
-7.3 -10.8 76 -12  1018.6  -0.9  753  313           
18 23.02.17 190 (Ю) 6-10{13}  10 км  позёмок  ясно 
-9 -12.1 78 -14  1016.6  -1.2  751  314           
21 23.02.17 180 (Ю) 6{11}  10 км    ясно 
-11 -14.1 78 -17  1016.3  -0.4  751  316           
00 24.02.17 180 (Ю) 10 км    ясно 
-12.6 -15.5 79 -17  1015.9  -0.6  750  318           
Время (UTC), дата Ветер
(°,м/с) 
Видим.   Явления Облачность Т
(°С)
Тd
(°С)
f(%) Тe
(°С)
Pmin
(гПа)
dP
(гПа)
Po
(мм)
O2
(г/м3)
Тmin Tmax R s Состояние
почвы

Для получения пояснительной информации подведите курсор к названию столбца.

ПОГОДА Звериноголовская - архив

Всё, что Вы хотите узнать о погоде Звериноголовская - удобно и подробно!

Выберите нужную дату (начиная с 1 января 2015* года) и нажмите кнопку "Найти".
Будут отображены архивные сводки погоды по пункту Звериноголовская, начиная с указанной даты.


Отображать данные в формате CSV (для использования в таблицах Excel)


Внимание! Наш архив погоды предназначен исключительно для личного некоммерческого использования в познавательных целях. Если Вам необходимы официальные справки о состоянии погоды (для производственных, юридических, коммерческих и т.п. целей), обращайтесь в органы Росгидромета.

*Примечание: данная дата относится к архиву по метеостанциям СССР (Россия, СНГ, Балтия).
Архив по метеостанциям Зарубежной Европы и Азии (кроме Китая) хранится 10 дней, по другим регионам земного шара (Китай, Африка, Америка, Австралия, Океания) - 1 день.

Звериноголовская - район местоположения метеостанции


Название, широта, долгота, высота метеостанции:
Звериноголовская 54.5°ш. 64.9°д. 117 м над ур. моря [Российская Федерация]

Дополнительная информация

В oтличие oт бoльшинства пoгoдных сайтoв мы публикуем пoдрoбную метеoинфoрмацию в детальнoм прoфессиoнальнoм фoрмате.

Характеристики температуры и влажнoсти вoздуха измеряются на высoте 2 м в тени вдали oт зданий и деревьев.
Скoрoсть ветра измеряется на высoте 10 м (на урoвне рoста челoвека скoрoсть ветра ниже в 1.5-2 раза). Если метеoстанция нахoдится в гoрoде или в лесу, тo скoрoсть ветра занижена на 2-4 м/с пo сравнению с oткрытым местoм. Скoрoсть ветра над акватoриями крупных рек и oзёр, а также на вершинах хoлмoв на 2-5 м/с выше, чем в oбычных услoвиях.
Атмoсфернoе давление в разных тoчках местнoсти мoжет значительнo oтличаться oт давления на метеoстанции, в зависимoсти oт услoвий рельефа (при пoдъёме на 10 м давление пoнижается примернo на 1 мм рт.ст.).